KC5EZZ-2 Weather Reports


Display with metric or nautical units.
time (UTC)temp
F
wind
direction
speed
MPH
gust
MPH
rain 1hr
in
rain 24hr
in
rain mn
in
humidity
%
barometer
mb
20260509203502 92 172 10.0 8.0 0.00 0.00 0.00
20260509203002 92 152 9.0 8.0 0.00 0.00 0.00
20260509202459 91 153 8.0 10.0 0.00 0.00 0.00
20260509201959 92 204 8.0 8.0 0.00 0.00 0.00
20260509201500 92 153 6.0 4.0 0.00 0.00 0.00
20260509200957 91 136 7.0 7.0 0.00 0.00 0.00
20260509200458 91 122 8.0 9.0 0.00 0.00 0.00
20260509195958 91 176 10.0 9.0 0.00 0.00 0.00
20260509195455 91 132 9.0 8.0 0.00 0.00 0.00
20260509194956 91 121 9.0 8.0 0.00 0.00 0.00
20260509194456 90 188 7.0 8.0 0.00 0.00 0.00
20260509193953 91 166 10.0 17.0 0.00 0.00 0.00
20260509193454 91 176 6.0 13.0 0.00 0.00 0.00
20260509192953 90 163 11.0 10.0 0.00 0.00 0.00
20260509192450 90 158 10.0 10.0 0.00 0.00 0.00
20260509191951 89 135 9.0 9.0 0.00 0.00 0.00
20260509191451 90 201 11.0 10.0 0.00 0.00 0.00
20260509190948 89 160 8.0 11.0 0.00 0.00 0.00
20260509190449 89 132 9.0 10.0 0.00 0.00 0.00
20260509185949 89 153 9.0 12.0 0.00 0.00 0.00
20260509185446 88 156 9.0 10.0 0.00 0.00 0.00
20260509184947 89 127 8.0 11.0 0.00 0.00 0.00
20260509184447 89 107 10.0 10.0 0.00 0.00 0.00
20260509183944 89 212 9.0 8.0 0.00 0.00 0.00
20260509183445 88 149 7.0 11.0 0.00 0.00 0.00
20260509182945 88 167 9.0 11.0 0.00 0.00 0.00
20260509182442 88 173 10.0 10.0 0.00 0.00 0.00
20260509181943 88 156 9.0 12.0 0.00 0.00 0.00
20260509181443 89 141 9.0 11.0 0.00 0.00 0.00
20260509180940 88 194 8.0 7.0 0.00 0.00 0.00
20260509180441 87 205 9.0 9.0 0.00 0.00 0.00
20260509175941 88 118 10.0 9.0 0.00 0.00 0.00
20260509175438 88 108 8.0 9.0 0.00 0.00 0.00
20260509174939 87 87 8.0 2.0 0.00 0.00 0.00
20260509174439 87 145 8.0 7.0 0.00 0.00 0.00
20260509173936 87 177 6.0 6.0 0.00 0.00 0.00
20260509173437 86 153 4.0 4.0 0.00 0.00 0.00
20260509172937 83 146 5.0 7.0 0.00 0.00 0.00
20260509172434 85 132 4.0 6.0 0.00 0.00 0.00
20260509172104 85 194 5.0 2.0 0.00 0.00 0.00
20260509171935 85 194 5.0 2.0 0.00 0.00 0.00
20260509171435 85 163 8.0 7.0 0.00 0.00 0.00
20260509170933 84 132 4.0 7.0 0.00 0.00 0.00
20260509170433 83 194 5.0 3.0 0.00 0.00 0.00
20260509165933 83 239 6.0 5.0 0.00 0.00 0.00
20260509165431 82 136 6.0 6.0 0.00 0.00 0.00
20260509164931 82 162 7.0 4.0 0.00 0.00 0.00
20260509164432 82 176 5.0 7.0 0.00 0.00 0.00
20260509163929 81 191 6.0 6.0 0.00 0.00 0.00
20260509163430 80 229 5.0 6.0 0.00 0.00 0.00
20260509162929 81 128 4.0 9.0 0.00 0.00 0.00
20260509162426 80 190 4.0 7.0 0.00 0.00 0.00
20260509161927 80 240 6.0 5.0 0.00 0.00 0.00
20260509161427 80 135 6.0 10.0 0.00 0.00 0.00
20260509160925 79 174 6.0 5.0 0.00 0.00 0.00
20260509160425 78 153 6.0 8.0 0.00 0.00 0.00
20260509155926 77 183 8.0 8.0 0.00 0.00 0.00
20260509155424 76 148 6.0 9.0 0.00 0.00 0.00
20260509154924 75 115 7.0 5.0 0.00 0.00 0.00
20260509154424 74 143 9.0 9.0 0.00 0.00 0.00
20260509153922 74 121 7.0 5.0 0.00 0.00 0.00
20260509153422 76 107 9.0 8.0 0.00 0.00 0.00
20260509152923 75 131 8.0 6.0 0.00 0.00 0.00
20260509152544 74 125 8.0 8.0 0.00 0.00 0.00
20260509152420 74 125 8.0 8.0 0.00 0.00 0.00
20260509151921 74 143 3.0 7.0 0.00 0.00 0.00
20260509151421 74 107 6.0 8.0 0.00 0.00 0.00
20260509150919 74 96 6.0 10.0 0.00 0.00 0.00
20260509150418 74 163 6.0 4.0 0.00 0.00 0.00
20260509145919 73 135 6.0 3.0 0.00 0.00 0.00
20260509145416 74 122 4.0 5.0 0.00 0.00 0.00
20260509144916 73 177 5.0 3.0 0.00 0.00 0.00
20260509144417 71 210 1.0 2.0 0.00 0.00 0.00
20260509143915 70 359 1.0 1.0 0.00 0.00 0.00
20260509143000 67 277 5.0 3.0 0.00 0.00 0.00
20260509142916 67 277 5.0 3.0 0.00 0.00 0.00
20260509142413 66 294 6.0 7.0 0.00 0.00 0.00
20260509141914 66 305 4.0 3.0 0.00 0.00 0.00
20260509141414 65 326 5.0 4.0 0.00 0.00 0.00
20260509140912 65 298 5.0 4.0 0.00 0.00 0.00
20260509140412 65 304 5.0 6.0 0.00 0.00 0.00
20260509135912 65 297 6.0 6.0 0.00 0.00 0.00
20260509135410 65 340 4.0 5.0 0.00 0.00 0.00
20260509134910 64 314 5.0 4.0 0.00 0.00 0.00
20260509134411 64 321 3.0 5.0 0.00 0.00 0.00
20260509133908 64 318 4.0 3.0 0.00 0.00 0.00
20260509133409 63 312 3.0 3.0 0.00 0.00 0.00
20260509132909 63 322 5.0 4.0 0.00 0.00 0.00
20260509132407 63 336 5.0 4.0 0.00 0.00 0.00
20260509131907 63 340 3.0 4.0 0.00 0.00 0.00
20260509131408 63 325 1.0 1.0 0.00 0.00 0.00
20260509130906 63 322 0.0 0.0 0.00 0.00 0.00
20260509130406 63 322 0.0 0.0 0.00 0.00 0.00
20260509125907 63 322 0.0 0.0 0.00 0.00 0.00
20260509125404 62 316 2.0 1.0 0.00 0.00 0.00
20260509124905 62 311 5.0 5.0 0.00 0.00 0.00
20260509124405 62 323 3.0 4.0 0.00 0.00 0.00
20260509123903 62 302 2.0 2.0 0.00 0.00 0.00
20260509123403 62 312 4.0 4.0 0.00 0.00 0.00
20260509122904 62 333 1.0 4.0 0.00 0.00 0.00
20260509122400 62 276 0.0 0.0 0.00 0.00 0.00
20260509121901 62 290 3.0 3.0 0.00 0.00 0.00
20260509121401 61 328 5.0 5.0 0.00 0.00 0.00
20260509120859 61 132 0.0 0.0 0.00 0.00 0.00
20260509120359 61 132 0.0 0.0 0.00 0.00 0.00
20260509115900 61 316 0.0 0.0 0.00 0.00 0.00
20260509115357 61 326 2.0 1.0 0.00 0.00 0.00
20260509114858 61 322 2.0 3.0 0.00 0.00 0.00
20260509114358 61 240 3.0 2.0 0.00 0.00 0.00
20260509113856 61 188 4.0 3.0 0.00 0.00 0.00
20260509113356 61 166 6.0 4.0 0.00 0.00 0.00
20260509112355 61 190 6.0 6.0 0.00 0.00 0.00
20260509111854 61 165 6.0 5.0 0.00 0.00 0.00
20260509111355 60 232 3.0 3.0 0.00 0.00 0.00
20260509110851 60 229 3.0 3.0 0.00 0.00 0.00
20260509110351 61 169 4.0 5.0 0.00 0.00 0.00
20260509105851 61 165 3.0 3.0 0.00 0.00 0.00
20260509105349 61 172 3.0 2.0 0.00 0.00 0.00
20260509104849 60 153 5.0 6.0 0.00 0.00 0.00
20260509104350 60 146 0.0 0.0 0.00 0.00 0.00
20260509103847 60 146 0.0 0.0 0.00 0.00 0.00
20260509103348 60 146 0.0 0.0 0.00 0.00 0.00
20260509102848 60 146 0.0 0.0 0.00 0.00 0.00
20260509102345 60 146 0.0 0.0 0.00 0.00 0.00
20260509101846 60 146 0.0 0.0 0.00 0.00 0.00
20260509101346 60 146 1.0 0.0 0.00 0.00 0.00
20260509100844 60 219 2.0 2.0 0.00 0.00 0.00
20260509100344 60 228 0.0 0.0 0.00 0.00 0.00
20260509095844 60 228 1.0 0.0 0.00 0.00 0.00
20260509095342 61 152 0.0 2.0 0.00 0.00 0.00
20260509094842 60 342 4.0 4.0 0.00 0.00 0.00
20260509094342 61 20 4.0 3.0 0.00 0.00 0.00
20260509093840 61 339 6.0 5.0 0.00 0.00 0.00
20260509093340 61 98 0.0 0.0 0.00 0.00 0.00
20260509092840 62 98 0.0 0.0 0.00 0.00 0.00
20260509092337 62 129 4.0 3.0 0.00 0.00 0.00
20260509091838 62 72 0.0 0.0 0.00 0.00 0.00
20260509091339 62 72 0.0 0.0 0.00 0.00 0.00
20260509090836 62 72 0.0 0.0 0.00 0.00 0.00
20260509090336 62 72 0.0 0.0 0.00 0.00 0.00
20260509085836 63 107 1.0 2.0 0.00 0.00 0.00
20260509085334 62 127 4.0 3.0 0.00 0.00 0.00
20260509084834 63 145 3.0 3.0 0.00 0.00 0.00
20260509084334 63 180 3.0 3.0 0.00 0.00 0.00
20260509083832 63 232 1.0 1.0 0.00 0.00 0.00
20260509083332 63 229 4.0 3.0 0.00 0.00 0.00
20260509082833 62 200 4.0 4.0 0.00 0.00 0.00
20260509082330 62 235 0.0 0.0 0.00 0.00 0.00
20260509081831 62 188 2.0 1.0 0.00 0.00 0.00
20260509081331 62 217 2.0 2.0 0.00 0.00 0.00
20260509080829 62 232 1.0 2.0 0.00 0.00 0.00
20260509080411 62 318 0.0 0.0 0.00 0.00 0.00
20260509080329 62 318 0.0 0.0 0.00 0.00 0.00
20260509075829 62 318 0.0 0.0 0.00 0.00 0.00
20260509075327 62 325 1.0 0.0 0.00 0.00 0.00
20260509074827 62 340 4.0 4.0 0.00 0.00 0.00
20260509074328 63 333 0.0 0.0 0.00 0.00 0.00
20260509073825 63 333 0.0 0.0 0.00 0.00 0.00
20260509073326 63 330 5.0 2.0 0.00 0.00 0.00
20260509072826 63 302 7.0 7.0 0.00 0.00 0.00
20260509072323 64 266 0.0 0.0 0.00 0.00 0.00
20260509071824 64 266 2.0 0.0 0.00 0.00 0.00
20260509071324 64 312 6.0 7.0 0.00 0.00 0.00
20260509070821 64 281 3.0 3.0 0.00 0.00 0.00
20260509065822 64 160 5.0 5.0 0.00 0.00 0.00
20260509065319 65 176 4.0 4.0 0.00 0.00 0.00
20260509064820 65 174 4.0 5.0 0.00 0.00 0.00
20260509064320 65 158 5.0 4.0 0.00 0.00 0.00
20260509063818 65 174 5.0 5.0 0.00 0.00 0.00
20260509063430 65 165 5.0 7.0 0.00 0.00 0.00
20260509063318 65 165 5.0 7.0 0.00 0.00 0.00
20260509062819 65 165 4.0 4.0 0.00 0.00 0.00
20260509062316 66 170 5.0 6.0 0.00 0.00 0.00
20260509061816 66 180 6.0 7.0 0.00 0.00 0.00
20260509061317 65 163 7.0 6.0 0.00 0.00 0.00
20260509060856 65 169 5.0 6.0 0.00 0.00 0.00
20260509060814 65 169 5.0 6.0 0.00 0.00 0.00
20260509060739 65 153 0.0 0.0 0.00 0.00 0.00
20260509060315 65 156 3.0 3.0 0.00 0.00 0.00
20260509055815 65 153 0.0 0.0 0.00 0.00 0.00
20260509055313 66 153 0.0 0.0 0.00 0.00 0.00
20260509054812 65 153 0.0 0.0 0.00 0.00 0.00
20260509054312 65 153 0.0 0.0 0.00 0.00 0.00
20260509053810 66 153 0.0 0.0 0.00 0.00 0.00
20260509053310 67 153 0.0 0.0 0.00 0.00 0.00
20260509052811 67 153 0.0 0.0 0.00 0.00 0.00
20260509052308 67 153 0.0 0.0 0.00 0.00 0.00
20260509051809 67 139 1.0 0.0 0.00 0.00 0.00
20260509051309 67 134 3.0 2.0 0.00 0.00 0.00
20260509050807 67 139 3.0 3.0 0.00 0.00 0.00
20260509050307 67 128 2.0 3.0 0.00 0.00 0.00
20260509045807 67 152 2.0 2.0 0.00 0.00 0.00
20260509045306 67 149 2.0 3.0 0.00 0.00 0.00
20260509044805 67 149 2.0 2.0 0.00 0.00 0.00
20260509044306 67 222 0.0 0.0 0.00 0.00 0.00
20260509043803 67 222 0.0 0.0 0.00 0.00 0.00
20260509043304 67 222 0.0 0.0 0.00 0.00 0.00
20260509042804 67 222 0.0 0.0 0.00 0.00 0.00
20260509042306 67 222 0.0 0.0 0.00 0.00 0.00
20260509041802 67 222 0.0 0.0 0.00 0.00 0.00
20260509041302 67 222 0.0 0.0 0.00 0.00 0.00
20260509040759 68 222 0.0 0.0 0.00 0.00 0.00
20260509040259 68 222 0.0 0.0 0.00 0.00 0.00
20260509035800 68 222 0.0 0.0 0.00 0.00 0.00
20260509035257 69 222 0.0 0.0 0.00 0.00 0.00
20260509034758 69 222 0.0 0.0 0.00 0.00 0.00
20260509034258 69 222 0.0 0.0 0.00 0.00 0.00
20260509033756 70 222 0.0 0.0 0.00 0.00 0.00
20260509033256 70 222 0.0 0.0 0.00 0.00 0.00
20260509032757 70 221 0.0 0.0 0.00 0.00 0.00
20260509032254 71 232 2.0 2.0 0.00 0.00 0.00
20260509031755 71 226 4.0 3.0 0.00 0.00 0.00
20260509031255 71 207 3.0 3.0 0.00 0.00 0.00
20260509030753 71 211 4.0 4.0 0.00 0.00 0.00
20260509030253 71 228 5.0 4.0 0.00 0.00 0.00
20260509025754 71 222 4.0 3.0 0.00 0.00 0.00
20260509025251 71 225 2.0 2.0 0.00 0.00 0.00
20260509024752 71 200 2.0 3.0 0.00 0.00 0.00
20260509024252 71 198 3.0 3.0 0.00 0.00 0.00
20260509023750 71 255 0.0 0.0 0.00 0.00 0.00
20260509023250 71 255 0.0 0.0 0.00 0.00 0.00
20260509022751 72 221 0.0 0.0 0.00 0.00 0.00
20260509022248 71 242 2.0 1.0 0.00 0.00 0.00
20260509021749 71 210 3.0 4.0 0.00 0.00 0.00
20260509021249 71 225 2.0 2.0 0.00 0.00 0.00
20260509020747 72 228 1.0 1.0 0.00 0.00 0.00
20260509020247 73 242 0.0 0.0 0.00 0.00 0.00
20260509015747 73 250 1.0 1.0 0.00 0.00 0.00
20260509015245 73 210 2.0 2.0 0.00 0.00 0.00
20260509014745 73 222 2.0 1.0 0.00 0.00 0.00
20260509014246 74 226 1.0 2.0 0.00 0.00 0.00
20260509013743 74 229 1.0 1.0 0.00 0.00 0.00
20260509013244 74 238 0.0 1.0 0.00 0.00 0.00
20260509012744 75 125 0.0 0.0 0.00 0.00 0.00
20260509012242 75 160 1.0 1.0 0.00 0.00 0.00
20260509011742 75 153 6.0 5.0 0.00 0.00 0.00
20260509011243 75 163 4.0 6.0 0.00 0.00 0.00
20260509010740 75 159 5.0 2.0 0.00 0.00 0.00
20260509010241 76 174 4.0 3.0 0.00 0.00 0.00
20260509005741 76 187 4.0 5.0 0.00 0.00 0.00
20260509005239 76 173 7.0 6.0 0.00 0.00 0.00
20260509004739 77 148 6.0 5.0 0.00 0.00 0.00
20260509004240 77 149 6.0 6.0 0.00 0.00 0.00
20260509003737 77 131 6.0 7.0 0.00 0.00 0.00
20260509002738 77 139 5.0 6.0 0.00 0.00 0.00
20260509002236 77 156 4.0 6.0 0.00 0.00 0.00
20260509001737 78 136 6.0 6.0 0.00 0.00 0.00
20260509001237 77 158 6.0 6.0 0.00 0.00 0.00
20260509000734 77 115 8.0 6.0 0.00 0.00 0.00
20260509000235 78 158 5.0 6.0 0.00 0.00 0.00
20260508235735 78 117 5.0 5.0 0.00 0.00 0.00
20260508234234 79 152 5.0 6.0 0.00 0.00 0.00
20260508233731 79 129 7.0 5.0 0.00 0.00 0.00
20260508232733 80 34 6.0 3.0 0.00 0.00 0.00
20260508232229 81 179 5.0 5.0 0.00 0.00 0.00
20260508231730 79 145 2.0 5.0 0.00 0.00 0.00
20260508231230 79 82 3.0 0.0 0.00 0.00 0.00
20260508230728 80 98 4.0 4.0 0.00 0.00 0.00
20260508230228 82 190 3.0 0.0 0.00 0.00 0.00
20260508225729 83 277 2.0 0.0 0.00 0.00 0.00
20260508225226 82 217 0.0 0.0 0.00 0.00 0.00
20260508224727 79 229 4.0 2.0 0.00 0.00 0.00
20260508224227 78 120 7.0 6.0 0.00 0.00 0.00
20260508223724 79 114 4.0 4.0 0.00 0.00 0.00
20260508223225 80 108 6.0 7.0 0.00 0.00 0.00
20260508222725 80 162 5.0 3.0 0.00 0.00 0.00
20260508222223 80 97 7.0 4.0 0.00 0.00 0.00
20260508221723 81 129 8.0 11.0 0.00 0.00 0.00
20260508221224 81 132 4.0 7.0 0.00 0.00 0.00
20260508220721 81 186 8.0 8.0 0.00 0.00 0.00
20260508220221 80 184 6.0 7.0 0.00 0.00 0.00
20260508215722 78 132 8.0 7.0 0.00 0.00 0.00
20260508215219 81 152 9.0 7.0 0.00 0.00 0.00
20260508214901 81 138 8.0 6.0 0.00 0.00 0.00
20260508214720 81 138 8.0 6.0 0.00 0.00 0.00
20260508214447 81 207 2.0 8.0 0.00 0.00 0.00
20260508214220 81 207 2.0 8.0 0.00 0.00 0.00
20260508213718 80 221 7.0 4.0 0.00 0.00 0.00
20260508213456 79 156 6.0 9.0 0.00 0.00 0.00
20260508213218 79 156 6.0 9.0 0.00 0.00 0.00
20260508212718 79 165 6.0 8.0 0.00 0.00 0.00
20260508212216 80 135 10.0 12.0 0.00 0.00 0.00
20260508211716 80 128 5.0 8.0 0.00 0.00 0.00
20260508211217 80 214 8.0 8.0 0.00 0.00 0.00
20260508210714 79 173 8.0 5.0 0.00 0.00 0.00
20260508210215 79 179 6.0 5.0 0.00 0.00 0.00
20260508205715 80 214 3.0 6.0 0.00 0.00 0.00
20260508205212 80 195 7.0 10.0 0.00 0.00 0.00
20260508204713 79 184 9.0 9.0 0.00 0.00 0.00
20260508204213 79 129 7.0 6.0 0.00 0.00 0.00